• In Czech Republic
  • List of Countries
  • For 7 days
  • Water Temperature
  • Satellite Maps
  • Weather Map
  • Weather Widgets
  • user-avatar
    Login

    Hourly Weather Algemesi

    Today, 21 June, Thursday

    Time Temperature Precipitation Wind Pressure Humidity
    00:00 +25°C° 0 mm 1 mps 762 mmHg 64%
    01:00 +24°C° 0 mm 1 mps 762 mmHg 64%
    02:00 +24°C° 0 mm 1 mps 762 mmHg 64%
    03:00 +24°C° 0 mm 1 mps 762 mmHg 64%
    04:00 +24°C° 0 mm 1 mps 762 mmHg 61%
    05:00 +24°C° 0 mm 1 mps 762 mmHg 58%
    06:00 +25°C° 0 mm 2 mps 762 mmHg 52%
    07:00 +27°C° 0 mm 2 mps 762 mmHg 46%
    08:00 +29°C° 0 mm 2 mps 761 mmHg 41%
    09:00 +31°C° 0 mm 2 mps 761 mmHg 35%
    10:00 +32°C° 0 mm 2 mps 761 mmHg 32%
    11:00 +34°C° 0 mm 3 mps 761 mmHg 28%
    12:00 +36°C° 0 mm 3 mps 761 mmHg 25%
    13:00 +36°C° 0 mm 4 mps 761 mmHg 25%
    14:00 +37°C° 0 mm 4 mps 761 mmHg 24%
    15:00 +37°C° 0 mm 4 mps 760 mmHg 24%
    16:00 +36°C° 0 mm 4 mps 760 mmHg 26%
    17:00 +35°C° 0 mm 4 mps 760 mmHg 29%
    18:00 +34°C° 0 mm 4 mps 760 mmHg 31%
    19:00 +33°C° 0 mm 3 mps 760 mmHg 37%
    20:00 +30°C° 0 mm 2 mps 761 mmHg 42%
    21:00 +28°C° 0 mm 1 mps 761 mmHg 48%
    22:00 +28°C° 0 mm 1 mps 761 mmHg 49%
    23:00 +27°C° 0 mm 1 mps 761 mmHg 51%

    Tomorrow, 22 June, Friday

    Time Temperature Precipitation Wind Pressure Humidity
    00:00 +26°C° 0 mm 1 mps 761 mmHg 53%
    01:00 +26°C° 0 mm 1 mps 761 mmHg 53%
    02:00 +26°C° 0 mm 1 mps 760 mmHg 53%
    03:00 +25°C° 0 mm 1 mps 760 mmHg 52%
    04:00 +26°C° 0 mm 1 mps 760 mmHg 50%
    05:00 +27°C° 0 mm 1 mps 761 mmHg 47%
    06:00 +28°C° 0 mm 1 mps 761 mmHg 44%
    07:00 +30°C° 0 mm 1 mps 761 mmHg 38%
    08:00 +32°C° 0 mm 1 mps 761 mmHg 33%
    09:00 +34°C° 0 mm 1 mps 761 mmHg 27%
    10:00 +36°C° 0 mm 2 mps 761 mmHg 26%
    11:00 +37°C° 0 mm 3 mps 760 mmHg 25%
    12:00 +38°C° 0 mm 4 mps 760 mmHg 24%
    13:00 +39°C° 0 mm 5 mps 760 mmHg 25%
    14:00 +40°C° 0 mm 5 mps 760 mmHg 25%
    15:00 +40°C° 0 mm 5 mps 760 mmHg 25%
    16:00 +39°C° 0 mm 5 mps 759 mmHg 27%
    17:00 +37°C° 0 mm 5 mps 759 mmHg 30%
    18:00 +36°C° 0 mm 5 mps 759 mmHg 33%
    19:00 +34°C° 0 mm 4 mps 760 mmHg 38%
    20:00 +33°C° 0 mm 4 mps 760 mmHg 43%
    21:00 +30°C° 0 mm 3 mps 760 mmHg 48%
    22:00 +29°C° 0 mm 3 mps 761 mmHg 50%
    23:00 +29°C° 0 mm 2 mps 761 mmHg 52%

    Day after tomorrow, 23 June, Saturday

    Time Temperature Precipitation Wind Pressure Humidity
    00:00 +28°C° 0 mm 2 mps 761 mmHg 54%
    01:00 +27°C° 0 mm 2 mps 761 mmHg 55%
    02:00 +27°C° 0 mm 2 mps 761 mmHg 57%
    03:00 +27°C° 0 mm 2 mps 761 mmHg 58%
    04:00 +27°C° 0 mm 2 mps 761 mmHg 56%
    05:00 +28°C° 0 mm 1 mps 761 mmHg 53%
    06:00 +28°C° 0 mm 1 mps 761 mmHg 51%
    07:00 +30°C° 0 mm 2 mps 761 mmHg 46%
    08:00 +31°C° 0 mm 2 mps 761 mmHg 42%
    09:00 +34°C° 0 mm 3 mps 761 mmHg 37%
    10:00 +35°C° 0 mm 3 mps 761 mmHg 35%
    11:00 +36°C° 0 mm 4 mps 761 mmHg 33%
    12:00 +37°C° 0 mm 4 mps 761 mmHg 31%
    13:00 +37°C° 0 mm 5 mps 761 mmHg 32%
    14:00 +37°C° 0 mm 5 mps 761 mmHg 34%
    15:00 +37°C° 0 mm 5 mps 760 mmHg 35%
    16:00 +36°C° 0 mm 5 mps 760 mmHg 40%
    17:00 +35°C° 0 mm 5 mps 760 mmHg 45%
    18:00 +34°C° 0 mm 4 mps 760 mmHg 50%
    19:00 +32°C° 0 mm 4 mps 760 mmHg 58%
    20:00 +29°C° 0 mm 3 mps 761 mmHg 66%
    21:00 +28°C° 0 mm 2 mps 761 mmHg 74%
    22:00 +27°C° 0 mm 2 mps 761 mmHg 77%
    23:00 +26°C° 0 mm 1 mps 761 mmHg 81%

    24 June, Sunday

    Time Temperature Precipitation Wind Pressure Humidity
    00:00 +26°C° 0 mm 1 mps 761 mmHg 84%
    01:00 +26°C° 0 mm 1 mps 761 mmHg 84%
    02:00 +23°C° 0 mm 0 mps 761 mmHg 84%
    03:00 +23°C° 0 mm 0 mps 761 mmHg 84%
    04:00 +26°C° 0 mm 1 mps 760 mmHg 80%
    05:00 +26°C° 0 mm 1 mps 760 mmHg 75%
    06:00 +27°C° 0 mm 1 mps 760 mmHg 71%
    07:00 +29°C° 0 mm 1 mps 760 mmHg 60%
    08:00 +31°C° 0 mm 1 mps 760 mmHg 49%
    09:00 +35°C° 0 mm 2 mps 760 mmHg 37%
    10:00 +36°C° 0 mm 2 mps 760 mmHg 32%
    11:00 +38°C° 0 mm 3 mps 759 mmHg 28%
    12:00 +41°C° 0 mm 4 mps 759 mmHg 23%
    13:00 +41°C° 0 mm 4 mps 759 mmHg 23%
    14:00 +41°C° 0 mm 5 mps 758 mmHg 23%
    15:00 +42°C° 0 mm 5 mps 758 mmHg 23%
    16:00 +40°C° 0 mm 5 mps 757 mmHg 28%
    17:00 +39°C° 0 mm 5 mps 757 mmHg 32%
    18:00 +37°C° 0 mm 4 mps 757 mmHg 37%
    19:00 +35°C° 0 mm 4 mps 757 mmHg 46%
    20:00 +33°C° 0 mm 3 mps 758 mmHg 55%
    21:00 +29°C° 0 mm 2 mps 758 mmHg 64%
    22:00 +29°C° 0 mm 2 mps 758 mmHg 66%
    23:00 +28°C° 0 mm 1 mps 758 mmHg 69%

    25 June, Monday

    Time Temperature Precipitation Wind Pressure Humidity
    00:00 +27°C° 0 mm 1 mps 758 mmHg 71%
    01:00 +27°C° 0 mm 1 mps 758 mmHg 72%
    02:00 +27°C° 0 mm 1 mps 758 mmHg 72%
    03:00 +26°C° 0 mm 1 mps 758 mmHg 72%
    04:00 +27°C° 0 mm 1 mps 758 mmHg 70%
    05:00 +25°C° 0 mm 0 mps 758 mmHg 68%
    06:00 +25°C° 0 mm 0 mps 758 mmHg 65%
    07:00 +29°C° 0 mm 1 mps 758 mmHg 57%
    08:00 +31°C° 0 mm 1 mps 759 mmHg 48%
    09:00 +34°C° 0 mm 1 mps 759 mmHg 40%
    10:00 +36°C° 0 mm 2 mps 759 mmHg 37%
    11:00 +37°C° 0 mm 3 mps 758 mmHg 34%
    12:00 +38°C° 0 mm 4 mps 758 mmHg 31%
    13:00 +38°C° 0 mm 4 mps 758 mmHg 33%
    14:00 +39°C° 0 mm 5 mps 758 mmHg 36%
    15:00 +37°C° 0 mm 5 mps 758 mmHg 38%
    16:00 +36°C° 0 mm 5 mps 758 mmHg 42%
    17:00 +35°C° 0 mm 5 mps 758 mmHg 47%
    18:00 +34°C° 0 mm 5 mps 758 mmHg 52%
    19:00 +32°C° 0.1 mm 4 mps 758 mmHg 60%
    20:00 +29°C° 0.1 mm 3 mps 759 mmHg 68%
    21:00 +27°C° 0.1 mm 3 mps 760 mmHg 77%
    22:00 +27°C° 0 mm 2 mps 760 mmHg 77%
    23:00 +26°C° 0 mm 2 mps 760 mmHg 77%

    26 June, Tuesday

    Time Temperature Precipitation Wind Pressure Humidity
    00:00 +26°C° 0 mm 1 mps 760 mmHg 77%
    01:00 +26°C° 0 mm 1 mps 759 mmHg 78%
    02:00 +26°C° 0 mm 1 mps 759 mmHg 79%
    03:00 +25°C° 0 mm 1 mps 759 mmHg 81%
    04:00 +25°C° 0 mm 1 mps 759 mmHg 80%
    05:00 +25°C° 0 mm 1 mps 759 mmHg 80%
    06:00 +26°C° 0 mm 1 mps 759 mmHg 79%
    07:00 +28°C° 0 mm 1 mps 759 mmHg 69%
    08:00 +30°C° 0 mm 2 mps 759 mmHg 59%
    09:00 +32°C° 0 mm 2 mps 760 mmHg 48%
    10:00 +34°C° 0 mm 3 mps 759 mmHg 44%
    11:00 +35°C° 0 mm 4 mps 759 mmHg 41%
    12:00 +37°C° 0 mm 4 mps 759 mmHg 37%
    13:00 +37°C° 0 mm 5 mps 759 mmHg 38%
    14:00 +37°C° 0 mm 5 mps 759 mmHg 38%
    15:00 +38°C° 0 mm 6 mps 758 mmHg 39%
    16:00 +36°C° 0 mm 6 mps 758 mmHg 42%
    17:00 +34°C° 0 mm 6 mps 759 mmHg 44%
    18:00 +33°C° 0 mm 5 mps 759 mmHg 47%
    19:00 +32°C° 0 mm 5 mps 759 mmHg 53%
    20:00 +29°C° 0 mm 4 mps 760 mmHg 59%
    21:00 +27°C° 0 mm 3 mps 760 mmHg 65%
    22:00 +27°C° 0 mm 2 mps 760 mmHg 69%
    23:00 +26°C° 0 mm 2 mps 760 mmHg 72%
    Show more